Location: Go�ngahuizen
(53.0821°N, 5.8849°E)
Time: 18:28:55
(UTC+00:00)

Cosmos 1805 Rocket - Visible Passes

Search period start: 08 August 2020 00:00
Search period end: 18 August 2020 00:00
Orbit: 607 x 629 km, 82.5° (Epoch: 08 August)

Date Brightness Start Highest point End Pass type
(mag) Time Alt. Az. Time Alt. Az. Time Alt. Az.
08 Aug 4.2 20:34:57 10° SSW 20:39:19 59° WNW 20:43:46 10° N visible
08 Aug 6.9 22:17:32 10° WNW 22:18:13 10° NW 22:18:53 10° NW visible
09 Aug 5.2 20:52:19 10° SW 20:56:26 36° WNW 21:00:36 10° N visible
10 Aug 6.0 21:10:03 10° WSW 21:13:38 24° WNW 21:17:16 10° N visible
11 Aug 3.6 19:47:59 10° S 19:52:26 85° E 19:56:55 10° NNE visible
11 Aug 6.5 21:28:14 10° W 21:30:57 16° WNW 21:33:40 10° NNW visible
12 Aug 4.3 20:05:03 10° SSW 20:09:26 59° WNW 20:13:53 10° N visible
12 Aug 7.1 21:47:49 10° WNW 21:48:20 10° NW 21:48:52 10° NW visible
13 Aug 5.3 20:22:27 10° SW 20:26:33 36° WNW 20:30:43 10° N visible
14 Aug 6.2 20:40:11 10° WSW 20:43:46 23° WNW 20:47:23 10° N visible
15 Aug 6.7 20:58:23 10° W 21:01:04 15° WNW 21:03:45 10° NNW visible
16 Aug 4.4 19:35:11 10° SSW 19:39:34 58° WNW 19:44:00 10° N visible
16 Aug 7.3 21:18:14 10° WNW 21:18:28 10° NW 21:18:43 10° NW visible
17 Aug 5.5 19:52:34 10° SW 19:56:41 35° WNW 20:00:50 10° N visible
